Wind_Speed
69 67 65 62 59 54 52 47 44 40 40 35 32 30 26 21 19 18 15 15 17 20 21 23 28 28 30 32 34 38 41 43 43 44 44 42 39 40 43 43 45 49 50 52 48 49 60 66 61 61 69 70 65 61
67 65 63 59 57 53 50 46 42 38 37 33 30 29 27 23 20 18 17 17 18 19 20 24 26 28 31 35 38 39 43 44 44 45 44 42 43 41 42 45 48 52 51 52 48 52 60 69 62 57 68 73 73 67
64 62 60 56 55 50 48 44 40 36 35 32 30 28 27 24 22 20 19 18 19 21 21 25 28 32 33 33 35 38 38 41 42 42 42 39 39 41 43 46 49 48 54 56 53 52 55 65 66 59 63 71 77 75
59 58 55 54 50 47 45 41 38 35 33 31 30 29 27 26 24 23 21 19 21 20 22 26 29 30 31 34 34 35 37 39 37 40 38 37 39 41 43 48 50 53 59 58 51 51 56 59 67 66 62 66 77 83
50 51 50 48 46 43 40 37 36 33 33 30 29 30 29 26 23 22 19 21 21 23 24 27 27 28 30 29 29 31 33 34 35 34 33 38 41 44 48 54 55 56 55 50 52 53 56 61 65 71 73 67 67 83
44 44 43 42 40 39 35 34 31 32 31 30 29 30 30 27 24 22 23 24 25 24 24 26 24 27 27 26 27 27 29 30 32 35 36 37 41 44 48 53 54 55 51 50 52 58 57 60 65 70 77 78 74 74
38 37 37 36 36 32 30 29 29 29 29 29 29 31 30 28 26 26 29 30 26 24 28 30 28 24 23 25 25 25 27 30 33 33 33 34 36 42 48 50 52 50 50 49 50 57 60 64 64 67 70 75 75 75
33 31 32 31 28 26 25 26 25 26 29 29 28 27 26 24 26 29 34 24 25 27 31 33 28 20 21 23 25 25 26 27 28 26 27 30 34 38 42 46 45 47 49 49 50 53 53 55 62 65 67 70 77 79
29 29 27 24 22 23 22 22 24 25 25 25 24 23 22 22 26 32 29 24 29 32 35 28 20 25 24 24 23 23 24 25 24 24 26 28 30 33 35 34 40 43 46 47 46 45 49 54 57 60 63 70 72 78
27 24 22 21 20 18 18 20 20 20 21 20 20 19 21 24 25 23 21 28 33 32 25 24 24 25 24 23 22 23 24 23 24 23 25 27 28 29 31 34 38 41 45 46 45 45 49 53 55 59 63 66 69 75
24 24 21 18 16 15 17 15 15 16 16 17 19 20 20 22 24 28 30 27 24 25 25 24 24 22 21 20 20 20 20 21 22 23 24 24 24 26 28 31 35 38 41 43 44 45 47 52 55 57 61 65 67 69
26 23 20 17 17 16 14 13 12 10 11 17 21 22 22 24 25 25 23 25 25 24 25 24 22 22 20 18 17 18 19 17 16 17 19 19 18 20 21 24 26 30 33 36 39 43 45 47 52 55 57 59 62 65
25 22 22 20 18 15 14 14 16 17 18 19 22 25 26 27 28 29 28 25 26 25 23 23 21 20 18 17 13 11 11 12 13 13 12 15 17 19 22 23 26 28 31 34 37 40 43 46 49 53 56 58 60 62
25 25 24 22 20 20 17 18 21 20 18 21 25 28 26 27 25 25 24 25 24 23 20 17 20 21 20 17 16 13 12 13 15 17 18 19 20 22 23 24 27 29 31 33 36 39 42 45 48 51 53 56 58 61
29 27 25 24 24 22 20 21 23 24 24 25 26 26 27 26 27 29 29 27 26 24 23 22 20 18 17 16 16 15 16 17 18 17 15 15 16 19 21 24 27 30 32 36 38 41 44 46 49 52 54 56 59 61
29 28 27 28 26 26 25 25 26 27 27 27 28 29 30 32 31 31 29 26 22 21 21 20 21 21 19 17 16 14 13 13 13 13 14 16 18 20 23 25 28 31 33 36 39 42 45 48 50 53 55 57 59 60
30 30 30 30 30 30 31 31 28 25 24 25 27 27 29 30 29 28 26 26 25 24 23 20 20 18 16 15 13 11 10 10 10 10 11 12 15 18 21 23 26 30 33 37 41 44 47 49 51 53 54 55 56 57
30 31 33 33 33 34 34 32 30 28 27 27 27 29 29 28 29 30 29 29 26 23 21 19 17 15 13 12 11 7 4 4 3 6 11 15 19 23 27 30 33 37 41 44 47 49 51 52 52 52 52 51 52 53
31 34 35 36 36 35 35 33 32 32 30 28 29 30 31 30 29 27 25 23 21 20 21 21 20 17 15 14 10 7 5 6 8 12 16 20 25 27 30 34 39 42 45 49 52 53 52 51 50 50 50 49 48 48
33 34 34 34 37 38 36 34 33 31 30 28 29 30 30 28 27 25 25 25 26 26 24 22 20 16 11 8 6 5 7 11 16 20 24 28 33 35 35 36 38 42 45 48 50 51 50 49 47 46 44 42 41 40
36 36 36 36 36 37 36 35 33 29 29 30 29 27 27 29 31 31 31 29 26 25 21 16 12 9 7 6 8 10 13 20 25 28 32 36 39 40 39 39 38 39 42 43 44 45 44 43 43 42 42 41 39 38
38 37 37 38 37 35 33 33 32 31 29 27 28 30 33 34 33 30 29 26 22 18 15 12 10 8 9 12 15 19 23 25 30 34 37 41 45 46 44 42 40 39 40 41 41 41 40 39 38 38 38 39 39 38
37 38 38 36 35 33 32 32 31 31 32 33 35 36 34 32 30 27 23 20 18 16 12 9 9 12 15 17 21 25 29 31 35 39 42 46 48 47 47 45 41 39 37 38 38 38 38 38 38 37 37 36 36 35
35 35 36 37 37 36 36 34 34 36 37 37 36 35 32 28 26 20 17 14 13 10 10 10 12 16 19 23 27 30 33 35 40 44 47 49 49 49 49 45 41 38 37 36 36 36 36 35 35 35 34 34 34 34
38 38 38 39 40 38 38 40 40 39 38 36 33 30 26 23 19 15 13 11 10 10 12 14 17 19 24 29 31 35 38 41 44 47 48 48 48 48 46 44 42 39 37 36 35 34 33 33 33 32 33 34 34 35
42 42 42 41 41 43 43 43 40 38 34 31 28 24 20 17 15 13 10 8 9 12 13 16 19 24 27 31 35 39 41 43 47 49 49 49 48 48 46 44 41 38 36 33 31 31 30 31 33 34 34 34 33 33
41 42 43 44 45 45 42 38 35 32 29 26 22 19 16 15 13 10 9 9 11 12 16 21 25 28 32 36 38 41 43 47 49 50 50 49 48 47 46 45 43 39 36 34 32 31 31 32 33 33 33 33 33 33
45 44 45 45 42 38 35 32 29 26 23 21 19 16 13 11 8 8 10 12 14 18 21 24 28 32 36 40 43 44 47 50 50 50 49 48 48 48 46 44 42 39 37 35 33 32 33 34 33 33 32 32 33 33
45 45 41 38 35 32 29 27 25 23 20 17 14 11 8 7 7 10 13 15 18 21 25 29 33 36 40 43 45 47 50 50 51 51 50 49 48 47 45 42 40 39 37 35 35 34 34 34 33 33 33 32 31 31
39 36 34 30 27 24 22 20 18 17 14 11 8 6 5 7 10 13 16 19 24 28 31 34 37 40 44 46 49 51 51 51 51 50 49 48 46 44 43 41 39 37 36 36 36 36 35 35 34 34 33 33 32 31
33 30 27 24 22 20 18 15 13 11 8 4 1 4 8 11 14 17 20 24 28 32 35 38 41 44 48 50 52 51 51 51 50 49 48 47 46 44 43 41 39 38 36 36 36 36 36 36 35 34 34 33 32 32
27 24 22 20 18 16 13 10 8 5 3 4 7 10 13 16 18 22 26 30 34 37 40 43 46 49 51 52 52 52 51 50 48 48 47 45 44 43 42 40 39 37 37 37 36 36 36 36 35 34 34 33 32 31
22 19 16 13 11 8 6 5 4 5 8 11 14 17 20 22 26 30 33 37 40 43 45 47 49 50 52 52 52 51 50 48 48 47 45 44 43 42 41 40 38 37 37 37 37 37 37 36 36 35 34 33 33 32
Wind_Direction
267 268 269 271 272 274 276 279 282 285 283 282 280 279 280 279 272 264 260 254 241 232 223 224 219 212 208 210 208 210 215 217 219 220 222 222 222 222 223 224 225 223 225 230 228 220 207 221 219 209 208 208 211 212
262 262 263 265 267 269 271 274 276 279 278 275 274 272 272 275 270 257 245 242 240 234 227 221 222 221 215 211 208 210 215 217 218 219 220 219 219 218 221 224 224 223 223 225 225 218 213 220 223 214 208 211 213 217
255 256 258 259 261 264 267 268 270 273 272 268 267 265 264 270 268 257 244 231 234 229 227 227 219 218 216 215 216 218 217 220 222 222 222 220 221 219 220 225 224 224 223 226 227 226 220 221 225 224 213 213 215 218
251 251 252 254 256 259 261 263 265 266 265 263 263 261 259 263 260 254 242 230 223 229 225 226 227 222 218 219 221 222 220 222 221 223 220 217 218 219 219 226 227 227 226 226 226 228 226 223 225 227 226 218 219 219
245 245 246 248 251 254 256 258 259 261 259 259 259 256 258 257 253 249 242 231 221 218 225 228 226 228 226 224 223 223 224 225 225 227 222 220 218 216 216 222 226 229 230 225 221 224 224 223 224 226 228 229 222 223
237 239 240 242 245 248 252 252 255 257 256 255 254 255 254 249 242 235 239 227 221 210 216 227 226 227 227 222 222 222 222 224 223 222 220 218 218 219 221 224 228 233 234 228 225 225 225 226 226 226 227 232 232 230
234 235 236 236 240 244 246 248 250 253 254 254 253 251 246 238 229 220 227 222 210 199 205 217 223 219 219 219 219 218 217 218 220 222 221 220 220 220 224 229 233 235 235 235 229 228 230 229 230 231 233 235 237 238
228 228 228 230 234 237 240 243 249 250 249 248 244 240 237 225 219 215 224 220 200 193 202 214 219 214 213 213 211 211 214 218 221 222 222 221 223 224 226 232 235 239 240 240 236 233 234 234 235 236 237 238 240 240
218 218 220 222 223 228 237 243 243 241 240 239 236 232 223 215 211 213 219 195 194 195 206 213 207 210 208 212 210 207 207 213 215 214 215 219 223 227 228 229 230 234 239 243 243 239 237 237 238 240 239 239 241 245
207 205 204 206 213 225 234 231 232 232 231 227 223 216 207 204 203 202 198 196 198 203 203 201 205 206 204 209 208 210 209 210 212 213 215 219 221 223 224 227 230 232 233 237 239 239 238 237 236 237 240 242 242 244
190 190 190 195 208 213 216 214 211 209 207 203 201 196 188 182 178 181 187 191 190 186 190 194 196 195 199 206 207 208 212 214 214 215 219 224 228 228 228 228 231 234 236 239 241 239 238 241 243 243 243 244 246 247
179 176 178 185 188 197 191 184 177 168 183 191 184 180 180 179 178 177 177 175 177 180 182 182 185 188 189 193 195 205 208 212 217 221 229 234 240 245 245 245 244 243 243 244 246 248 248 248 249 250 250 250 251 252
167 168 169 173 177 170 158 160 161 160 167 169 169 162 160 161 163 164 167 171 169 171 176 178 182 183 182 168 164 171 184 196 208 221 228 229 231 235 237 237 238 239 241 243 246 249 251 252 252 253 254 255 256 256
162 162 165 167 159 156 163 167 160 155 165 168 162 155 156 155 161 159 156 157 159 163 163 169 175 165 157 158 163 169 176 191 197 207 217 225 230 235 243 248 252 254 255 255 256 255 257 257 258 258 258 259 260 261
157 161 160 154 153 152 162 161 155 150 151 149 146 143 144 146 148 149 149 148 147 152 156 154 149 149 156 161 167 177 191 202 212 222 232 243 249 253 255 256 259 261 262 263 264 264 264 264 263 263 263 262 262 263
157 155 153 152 149 153 152 148 143 142 147 150 150 147 146 146 146 143 139 138 140 143 148 153 157 165 176 184 185 191 207 217 227 236 246 255 260 264 266 269 271 272 272 271 270 269 268 267 266 265 265 264 264 264
153 152 151 149 151 152 149 145 143 148 147 147 145 146 144 140 136 136 138 145 155 161 166 167 168 171 176 181 179 188 199 212 233 252 268 273 277 280 282 283 281 279 280 280 277 273 271 270 269 269 269 269 269 269
151 151 148 149 152 152 148 144 141 138 141 142 142 142 141 142 144 150 158 161 161 163 162 156 155 153 155 160 161 152 143 102 34 334 315 301 294 291 287 283 282 281 279 278 278 277 277 277 277 278 278 278 276 275
149 149 149 152 151 150 145 142 141 141 142 142 142 144 143 147 151 154 156 157 161 155 146 143 139 138 126 113 99 80 42 356 325 310 303 307 304 300 301 290 283 283 282 282 283 284 285 286 286 285 282 280 279 277
150 150 152 153 151 148 147 144 141 138 139 141 142 145 147 151 155 156 154 150 144 140 135 123 110 101 96 87 65 32 15 356 340 331 327 322 319 315 315 307 296 291 290 289 288 289 290 290 290 288 287 286 284 281
149 151 152 152 150 149 148 146 145 146 148 153 157 156 155 151 147 144 141 135 125 114 108 105 106 96 74 42 11 351 345 344 340 336 330 327 321 319 317 312 302 295 291 290 290 292 293 293 293 293 292 290 288 284
151 153 154 153 155 154 153 150 151 156 160 162 159 154 147 142 140 131 117 111 109 109 106 99 86 65 33 13 2 353 345 338 333 332 329 327 325 325 320 314 310 307 304 302 300 299 298 297 296 295 293 292 291 290
152 153 157 157 154 152 152 156 159 158 154 151 146 143 138 129 119 109 113 116 110 102 90 68 42 23 9 357 349 341 339 335 333 331 330 328 326 324 320 318 315 312 309 306 303 300 299 298 297 297 296 295 293 292
153 153 152 152 152 155 156 156 153 149 144 142 138 131 124 120 116 121 121 112 102 86 62 36 17 3 353 348 344 340 336 332 332 331 327 325 324 322 319 318 316 317 315 311 306 304 301 299 299 299 297 296 296 295
149 150 151 153 155 154 151 146 143 139 137 131 125 123 123 124 128 123 111 96 70 47 27 10 357 352 347 344 339 336 336 333 330 326 323 323 322 321 322 321 321 321 318 313 307 305 303 302 301 300 300 300 299 299
150 152 152 153 150 146 142 139 137 133 129 127 126 128 132 128 121 107 90 69 41 24 8 356 350 345 339 337 337 334 332 329 327 326 326 325 324 323 324 324 324 321 317 313 309 308 308 308 308 308 307 305 304 302
147 148 146 145 141 139 137 133 131 128 128 132 135 136 135 122 99 81 56 33 21 2 352 345 340 337 337 338 334 332 331 330 328 326 324 324 323 324 324 324 324 322 320 318 315 313 313 313 313 311 310 308 308 307
139 140 139 136 134 132 130 129 127 131 137 139 139 134 115 95 74 46 24 8 356 349 344 340 338 336 335 335 333 332 331 328 326 325 324 323 324 324 324 324 324 322 321 319 318 317 317 317 316 316 314 313 312 311
135 134 134 132 130 129 130 134 141 146 143 137 124 105 91 68 29 0 349 342 339 337 337 335 332 332 333 333 332 331 328 325 325 324 322 322 323 323 322 323 323 322 320 318 318 319 319 319 319 318 317 316 316 315
132 128 128 130 133 137 143 147 146 142 139 128 113 86 42 0 342 334 330 329 328 330 332 331 330 330 332 332 331 329 326 324 324 322 320 321 320 322 324 324 323 321 319 319 320 321 322 323 322 322 320 320 319 318
129 130 133 137 141 147 151 153 153 153 153 146 63 345 334 325 325 327 326 326 327 328 329 329 329 331 332 331 330 325 323 322 321 321 323 324 323 324 324 322 321 320 319 320 322 323 325 325 324 323 322 322 321 320
138 141 147 151 155 158 158 159 162 169 203 261 293 308 311 314 319 323 324 324 326 328 329 330 330 331 330 328 325 324 322 321 321 322 323 322 322 323 322 321 321 321 321 323 324 325 326 326 324 323 322 323 322 320
149 156 159 158 159 167 184 198 223 254 281 294 303 309 312 315 317 316 319 321 324 326 327 327 328 328 327 324 323 323 321 320 320 322 322 323 323 323 322 321 321 321 322 324 324 325 326 326 324 323 323 324 323 320
Height
10107 10110 10112 10114 10116 10119 10119 10121 10121 10120 10118 10117 10115 10114 10113 10112 10112 10111 10114 10115 10116 10118 10120 10123 10125 10131 10139 10145 10153 10159 10164 10171 10179 10186 10194 10202 10212 10219 10224 10232 10238 10243 10249 10251 10259 10268 10278 10274 10290 10307 10317 10326 10333 10340
10087 10091 10094 10097 10101 10104 10106 10108 10109 10109 10108 10108 10107 10106 10106 10105 10105 10106 10108 10110 10112 10114 10118 10120 10123 10128 10133 10136 10142 10149 10155 10163 10170 10178 10185 10194 10201 10210 10216 10221 10227 10233 10239 10243 10251 10257 10264 10267 10279 10293 10304 10312 10320 10326
10067 10072 10077 10082 10085 10089 10092 10094 10096 10098 10098 10098 10098 10098 10099 10098 10098 10100 10102 10106 10108 10110 10113 10116 10118 10120 10125 10132 10139 10144 10151 10157 10164 10172 10178 10189 10196 10202 10208 10211 10216 10224 10228 10231 10239 10248 10256 10262 10271 10280 10290 10298 10308 10313
10048 10055 10061 10065 10071 10075 10078 10081 10084 10086 10088 10089 10089 10090 10091 10090 10091 10092 10096 10099 10103 10107 10109 10110 10113 10118 10122 10125 10132 10139 10145 10150 10159 10163 10172 10181 10188 10193 10199 10201 10207 10209 10212 10221 10235 10239 10248 10254 10261 10269 10277 10284 10288 10295
10032 10039 10045 10051 10057 10062 10065 10069 10071 10074 10076 10078 10079 10080 10081 10082 10084 10086 10091 10093 10097 10101 10103 10105 10110 10115 10118 10124 10130 10135 10140 10145 10152 10158 10165 10170 10177 10182 10186 10187 10192 10196 10203 10215 10222 10227 10232 10241 10247 10254 10261 10261 10276 10280
10019 10026 10032 10039 10045 10048 10053 10057 10060 10063 10065 10068 10069 10070 10071 10073 10077 10080 10082 10086 10089 10095 10099 10101 10106 10110 10115 10120 10124 10128 10133 10138 10144 10149 10155 10161 10166 10173 10177 10179 10184 10187 10196 10204 10211 10216 10224 10227 10234 10238 10243 10247 10256 10261
10008 10015 10022 10028 10033 10038 10043 10047 10050 10052 10055 10057 10058 10059 10061 10064 10068 10072 10073 10075 10084 10090 10094 10095 10099 10104 10110 10114 10119 10123 10128 10131 10135 10141 10148 10154 10160 10164 10167 10171 10174 10181 10187 10193 10200 10201 10208 10217 10221 10228 10234 10239 10244 10249
9999 10006 10012 10018 10025 10030 10034 10037 10040 10042 10044 10044 10046 10048 10051 10054 10059 10065 10065 10070 10078 10084 10089 10090 10094 10102 10106 10110 10113 10118 10122 10127 10131 10136 10143 10148 10152 10156 10161 10163 10171 10175 10179 10183 10188 10195 10200 10207 10212 10217 10222 10226 10229 10233
9992 9998 10005 10013 10018 10022 10025 10028 10030 10032 10033 10035 10038 10040 10042 10049 10054 10056 10059 10069 10074 10079 10081 10087 10094 10098 10102 10106 10111 10115 10119 10122 10128 10132 10137 10140 10144 10148 10155 10161 10163 10168 10171 10174 10179 10187 10191 10195 10200 10204 10210 10213 10217 10220
9986 9993 10001 10006 10011 10015 10018 10020 10022 10024 10025 10028 10031 10034 10038 10043 10047 10052 10058 10065 10070 10074 10082 10086 10091 10096 10100 10104 10108 10113 10116 10120 10124 10128 10131 10134 10138 10143 10148 10152 10155 10159 10162 10164 10169 10175 10179 10181 10186 10189 10193 10196 10201 10204
9982 9990 9996 10002 10006 10009 10011 10014 10016 10017 10019 10023 10026 10031 10036 10040 10045 10049 10054 10062 10068 10073 10078 10084 10089 10094 10099 10104 10107 10111 10114 10118 10122 10125 10127 10130 10134 10139 10142 10144 10147 10150 10153 10156 10159 10163 10167 10169 10172 10175 10178 10180 10183 10185
9980 9987 9993 9998 10001 10004 10007 10010 10011 10014 10018 10022 10025 10029 10034 10038 10044 10050 10056 10062 10067 10073 10078 10083 10088 10093 10097 10101 10106 10110 10114 10117 10121 10124 10126 10130 10134 10137 10140 10142 10145 10147 10149 10151 10152 10153 10156 10158 10158 10160 10164 10165 10167 10170
9978 9985 9991 9994 9998 10002 10004 10009 10012 10014 10018 10022 10026 10028 10033 10039 10045 10050 10056 10062 10068 10073 10080 10084 10089 10093 10097 10101 10106 10110 10113 10117 10119 10121 10124 10126 10128 10130 10131 10134 10135 10137 10139 10141 10142 10143 10143 10144 10145 10146 10146 10147 10148 10149
9978 9983 9988 9992 9997 10001 10006 10010 10013 10016 10020 10024 10027 10031 10038 10043 10048 10054 10060 10066 10071 10076 10081 10086 10090 10093 10096 10101 10105 10109 10113 10116 10118 10120 10121 10123 10125 10126 10127 10129 10129 10130 10131 10131 10132 10132 10133 10133 10132 10132 10132 10131 10130 10130
9976 9981 9987 9993 9998 10004 10009 10012 10015 10020 10024 10029 10033 10036 10041 10047 10053 10058 10062 10068 10074 10078 10083 10087 10091 10095 10099 10103 10106 10109 10112 10116 10118 10120 10122 10124 10126 10127 10127 10127 10126 10126 10125 10124 10123 10122 10121 10120 10118 10117 10115 10114 10113 10112
9976 9982 9988 9994 10000 10006 10012 10016 10020 10024 10029 10033 10036 10041 10046 10051 10056 10061 10067 10072 10078 10082 10086 10090 10093 10096 10100 10105 10108 10112 10115 10117 10119 10120 10121 10122 10122 10122 10121 10120 10118 10117 10115 10113 10111 10108 10105 10103 10100 10098 10096 10094 10092 10090
9978 9984 9991 9997 10004 10009 10015 10020 10025 10029 10034 10038 10042 10047 10051 10056 10061 10066 10071 10076 10081 10085 10089 10093 10097 10102 10105 10108 10111 10113 10115 10116 10117 10119 10119 10119 10118 10116 10115 10113 10110 10107 10104 10100 10096 10092 10088 10084 10081 10079 10076 10074 10072 10070
9981 9988 9995 10002 10008 10014 10018 10024 10029 10034 10039 10044 10048 10053 10057 10062 10066 10071 10076 10081 10086 10090 10094 10097 10101 10104 10106 10109 10111 10114 10116 10117 10117 10117 10116 10114 10112 10110 10107 10103 10099 10095 10090 10084 10079 10075 10070 10067 10063 10061 10058 10056 10054 10051
9986 9992 9999 10005 10011 10017 10023 10028 10033 10038 10044 10050 10054 10059 10062 10067 10071 10076 10081 10086 10090 10094 10097 10100 10103 10107 10110 10112 10114 10115 10115 10116 10115 10113 10111 10108 10104 10100 10096 10090 10086 10080 10074 10069 10063 10058 10054 10050 10046 10042 10038 10036 10034 10032
9991 9997 10004 10009 10015 10021 10028 10034 10039 10045 10050 10055 10059 10063 10067 10072 10077 10082 10086 10090 10093 10097 10101 10104 10108 10110 10112 10113 10114 10114 10114 10112 10109 10106 10103 10098 10093 10088 10082 10077 10071 10065 10060 10054 10047 10042 10037 10033 10029 10024 10021 10018 10016 10014
9996 10002 10008 10014 10020 10026 10032 10038 10045 10051 10055 10060 10065 10069 10073 10077 10081 10086 10090 10094 10098 10102 10105 10108 10110 10112 10113 10113 10112 10111 10109 10106 10102 10099 10095 10089 10083 10077 10071 10065 10058 10053 10046 10040 10034 10029 10024 10019 10014 10009 10004 10001 10000 9998
10000 10007 10013 10018 10025 10032 10038 10044 10050 10055 10060 10065 10069 10074 10078 10082 10087 10092 10095 10098 10102 10105 10108 10110 10111 10112 10111 10110 10108 10106 10104 10101 10097 10092 10087 10080 10073 10065 10058 10051 10045 10038 10031 10024 10018 10013 10008 10004 10001 9996 9993 9988 9984 9981
10006 10012 10019 10025 10032 10038 10044 10049 10054 10059 10064 10069 10074 10079 10084 10088 10092 10095 10099 10103 10105 10107 10109 10110 10110 10109 10108 10106 10104 10102 10098 10095 10090 10084 10077 10069 10061 10053 10045 10038 10032 10027 10020 10013 10007 10001 9996 9992 9988 9984 9980 9976 9972 9969
10013 10018 10024 10031 10037 10044 10049 10054 10060 10066 10071 10076 10081 10085 10089 10092 10096 10100 10103 10106 10107 10108 10108 10108 10107 10106 10105 10103 10100 10096 10092 10086 10080 10074 10067 10060 10052 10044 10035 10027 10020 10015 10008 10002 9996 9991 9986 9981 9977 9973 9969 9965 9961 9957
10019 10026 10032 10038 10044 10049 10055 10061 10067 10072 10077 10082 10085 10089 10093 10097 10101 10104 10105 10106 10106 10106 10106 10105 10104 10103 10100 10097 10094 10089 10083 10078 10072 10066 10058 10050 10042 10033 10025 10017 10009 10003 9998 9992 9986 9981 9976 9971 9967 9963 9959 9954 9950 9946
10024 10031 10037 10044 10050 10056 10061 10068 10073 10078 10082 10085 10089 10094 10098 10101 10103 10104 10105 10105 10105 10104 10104 10103 10101 10099 10097 10093 10087 10082 10077 10071 10063 10054 10045 10036 10028 10020 10013 10005 9999 9993 9988 9983 9977 9972 9967 9962 9957 9951 9947 9943 9939 9935
10033 10039 10045 10051 10056 10063 10068 10073 10077 10081 10085 10090 10094 10097 10100 10102 10103 10104 10104 10104 10104 10103 10101 10099 10096 10093 10089 10085 10080 10075 10068 10061 10052 10044 10035 10026 10018 10010 10002 9994 9988 9982 9977 9972 9967 9962 9957 9953 9948 9943 9937 9932 9927 9923
10042 10048 10054 10061 10065 10069 10074 10079 10082 10087 10091 10094 10097 10098 10100 10100 10102 10102 10102 10102 10101 10099 10097 10094 10090 10086 10081 10076 10070 10063 10057 10050 10042 10034 10024 10016 10008 10000 9992 9986 9979 9973 9968 9962 9958 9953 9948 9943 9938 9933 9928 9922 9917 9911
10052 10057 10061 10065 10070 10074 10079 10083 10087 10090 10093 10095 10097 10097 10099 10100 10100 10100 10099 10098 10097 10095 10092 10088 10084 10079 10073 10067 10061 10054 10048 10039 10031 10023 10015 10007 9999 9992 9985 9979 9972 9966 9959 9954 9949 9944 9939 9934 9929 9923 9918 9913 9908 9902
10058 10063 10067 10072 10077 10080 10084 10087 10090 10092 10094 10095 10096 10097 10097 10098 10097 10097 10096 10094 10091 10088 10085 10080 10075 10070 10064 10057 10051 10044 10037 10028 10020 10012 10005 9998 9991 9984 9976 9969 9963 9958 9952 9946 9940 9934 9929 9924 9919 9913 9908 9903 9898 9893
10065 10069 10073 10077 10081 10084 10087 10089 10091 10092 10093 10094 10095 10095 10095 10095 10094 10093 10091 10088 10084 10081 10077 10072 10067 10060 10054 10047 10041 10035 10027 10018 10010 10002 9995 9987 9979 9973 9967 9961 9955 9949 9944 9938 9932 9927 9921 9915 9909 9904 9898 9894 9889 9884
10070 10073 10078 10081 10084 10086 10087 10088 10090 10091 10092 10092 10092 10092 10091 10090 10088 10086 10084 10080 10077 10073 10069 10063 10057 10050 10044 10038 10031 10024 10015 10007 10000 9992 9986 9978 9971 9964 9958 9952 9946 9941 9935 9929 9923 9918 9912 9906 9901 9896 9891 9886 9881 9876
10074 10077 10080 10082 10084 10085 10086 10087 10088 10089 10089 10089 10088 10087 10086 10084 10082 10079 10076 10072 10068 10064 10059 10053 10047 10041 10034 10027 10019 10011 10003 9996 9990 9983 9976 9968 9962 9956 9949 9943 9938 9932 9927 9921 9915 9910 9904 9898 9892 9887 9882 9877 9873 9868